Location: *
(51.5000°N, 0.1100°W)
Time: 06:23:55
(UTC+00:00)

IDEFIX/ARIANE 42P - Pass Details

Date: 13 August 2024
Orbit: 782 x 799 km, 98.5° (Epoch: 08 September)

Event Time Altitude Azimuth Distance (km) Brightness Sun altitude
Rises 01:11:09 0° 20° (NNE) 3,285 7.3 -22.4°
Reaches altitude 10° 01:13:38 10° 28° (NNE) 2,353 6.1 -22.3°
Maximum altitude 01:18:29 39° 97° (E) 1,175 3.5 -22.0°
Enters shadow 01:20:24 29° 141° (SE) 1,427 3.6 -21.9°
